Location: ??
(34.7252°N, 135.5457°E)
Time: 18:17:56
(UTC+00:00)

SL-4 R/B - Pass Details

Date: 24 September 2020
Orbit: 427 x 666 km, 51.6° (Epoch: 27 October)

Event Time Altitude Azimuth Distance (km) Brightness Sun altitude
Exits shadow 18:23:45 23° 9° (N) 1,333 4.2 -29.8°
Drops below altitude 10° 18:26:03 10° 31° (NNE) 2,030 5.5 -29.4°
Sets 18:28:40 0° 41° (NE) 2,968 6.7 -28.9°
